SAS1418 EKCH-ESSA

Flight info

Callsign SAS1418
Flight time 0h 52m
Altitude 41000
Route KEMAX DCT RASMU DCT DETSO N873 ARS T317 ELTOK
Aircraft A359/H-SDE2E3GHIJ3J4J5LM1ORWXY/LB1D1

Departure

Time 2026-05-06 10:09
Airport Copenhagen Kastrup Airport (EKCH)

Arrival

Time 2026-05-06 11:01
Airport Stockholm-Arlanda Airport (ESSA)
Time Latitude Longitude Altitude Speed Heading
2026-05-06 09:29 55.62432 12.65072 30 ft 0 kts 269°
2026-05-06 09:57 55.62432 12.65073 30 ft 1 kts 269°
2026-05-06 09:57 55.62433 12.65116 29 ft 4 kts 269°
2026-05-06 09:57 55.62433 12.65159 27 ft 4 kts 266°
2026-05-06 09:58 55.62440 12.65195 28 ft 4 kts 201°
2026-05-06 09:58 55.62465 12.65198 29 ft 4 kts 176°
2026-05-06 09:58 55.62470 12.65198 28 ft 0 kts 178°
2026-05-06 10:01 55.62442 12.65199 30 ft 10 kts 178°
2026-05-06 10:01 55.62357 12.65205 30 ft 14 kts 179°
2026-05-06 10:01 55.62247 12.65194 30 ft 18 kts 188°
2026-05-06 10:02 55.62128 12.65085 30 ft 21 kts 213°
2026-05-06 10:02 55.61997 12.64934 30 ft 24 kts 213°
2026-05-06 10:02 55.61853 12.64768 30 ft 24 kts 213°
2026-05-06 10:02 55.61722 12.64616 30 ft 18 kts 214°
2026-05-06 10:03 55.61605 12.64479 30 ft 22 kts 213°
2026-05-06 10:03 55.61467 12.64325 30 ft 25 kts 212°
2026-05-06 10:03 55.61311 12.64146 30 ft 28 kts 213°
2026-05-06 10:03 55.61147 12.63956 30 ft 29 kts 213°
2026-05-06 10:04 55.60985 12.63769 30 ft 18 kts 213°
2026-05-06 10:04 55.60880 12.63647 30 ft 20 kts 213°
2026-05-06 10:04 55.60761 12.63514 30 ft 17 kts 212°
2026-05-06 10:04 55.60679 12.63419 30 ft 15 kts 216°
2026-05-06 10:05 55.60605 12.63314 30 ft 13 kts 220°
2026-05-06 10:05 55.60545 12.63219 30 ft 12 kts 223°
2026-05-06 10:05 55.60502 12.63151 30 ft 8 kts 219°
2026-05-06 10:05 55.60442 12.63114 30 ft 10 kts 175°
2026-05-06 10:06 55.60404 12.63161 30 ft 0 kts 133°
2026-05-06 10:06 55.60393 12.63184 30 ft 8 kts 132°
2026-05-06 10:07 55.60347 12.63276 32 ft 7 kts 130°
2026-05-06 10:07 55.60343 12.63329 32 ft 4 kts 74°
2026-05-06 10:07 55.60368 12.63394 32 ft 9 kts 49°
2026-05-06 10:07 55.60395 12.63434 31 ft 0 kts 40°
2026-05-06 10:08 55.60437 12.63498 30 ft 30 kts 41°
2026-05-06 10:08 55.60807 12.64069 33 ft 109 kts 41°
2026-05-06 10:09 55.61518 12.65215 140 ft 158 kts 41°
2026-05-06 10:09 55.62362 12.66467 997 ft 159 kts 38°
2026-05-06 10:09 55.63234 12.67706 1885 ft 168 kts 39°
2026-05-06 10:09 55.64194 12.69096 2354 ft 197 kts 43°
2026-05-06 10:10 55.65289 12.70855 2778 ft 227 kts 43°
2026-05-06 10:10 55.66526 12.72772 3474 ft 243 kts 41°
2026-05-06 10:10 55.67834 12.74733 4390 ft 248 kts 41°
2026-05-06 10:10 55.69167 12.76722 5344 ft 254 kts 40°
2026-05-06 10:11 55.70529 12.78754 6351 ft 258 kts 40°
2026-05-06 10:11 55.71913 12.80821 7327 ft 263 kts 40°
2026-05-06 10:11 55.73330 12.82940 8289 ft 271 kts 39°
2026-05-06 10:11 55.74795 12.85133 9215 ft 280 kts 39°
2026-05-06 10:12 55.76288 12.87449 10150 ft 289 kts 40°
2026-05-06 10:12 55.77848 12.89914 10662 ft 313 kts 40°
2026-05-06 10:12 55.79537 12.92578 11194 ft 333 kts 40°
2026-05-06 10:12 55.81300 12.95361 12007 ft 344 kts 40°
2026-05-06 10:13 55.83107 12.98213 12928 ft 351 kts 40°
2026-05-06 10:13 55.84946 13.01118 13846 ft 356 kts 40°
2026-05-06 10:13 55.86818 13.04076 14668 ft 363 kts 40°
2026-05-06 10:13 55.88719 13.07085 15459 ft 369 kts 40°
2026-05-06 10:14 55.90658 13.10156 16184 ft 376 kts 40°
2026-05-06 10:14 55.92627 13.13279 17005 ft 382 kts 40°
2026-05-06 10:14 55.94626 13.16454 17839 ft 388 kts 39°
2026-05-06 10:14 55.96627 13.19637 18610 ft 394 kts 39°
2026-05-06 10:15 55.98715 13.22962 19364 ft 399 kts 39°
2026-05-06 10:15 56.00771 13.26243 20110 ft 405 kts 40°
2026-05-06 10:15 56.02882 13.29616 20860 ft 410 kts 40°
2026-05-06 10:15 56.05021 13.33040 21594 ft 415 kts 40°
2026-05-06 10:16 56.07186 13.36509 22332 ft 421 kts 40°
2026-05-06 10:16 56.09378 13.40026 23057 ft 426 kts 40°
2026-05-06 10:16 56.11681 13.43404 23754 ft 430 kts 33°
2026-05-06 10:16 56.14300 13.46062 24181 ft 436 kts 20°
2026-05-06 10:17 56.17146 13.48015 24755 ft 440 kts 16°
2026-05-06 10:17 56.20063 13.49732 25356 ft 444 kts 14°
2026-05-06 10:17 56.23035 13.51355 25915 ft 448 kts 13°
2026-05-06 10:17 56.26040 13.52965 26496 ft 454 kts 14°
2026-05-06 10:18 56.29081 13.54609 27067 ft 459 kts 14°
2026-05-06 10:18 56.32150 13.56297 27629 ft 464 kts 15°
2026-05-06 10:18 56.35253 13.58031 28179 ft 469 kts 15°
2026-05-06 10:18 56.38383 13.59802 28667 ft 476 kts 15°
2026-05-06 10:19 56.41565 13.61616 29085 ft 483 kts 15°
2026-05-06 10:19 56.44785 13.63459 29625 ft 487 kts 15°
2026-05-06 10:19 56.48028 13.65320 30126 ft 492 kts 16°
2026-05-06 10:19 56.51302 13.67202 30568 ft 496 kts 16°
2026-05-06 10:20 56.54602 13.69102 31027 ft 499 kts 16°
2026-05-06 10:20 56.57925 13.71016 31458 ft 503 kts 16°
2026-05-06 10:20 56.61267 13.72945 31897 ft 506 kts 16°
2026-05-06 10:20 56.64641 13.74893 32285 ft 511 kts 15°
2026-05-06 10:21 56.68047 13.76862 32633 ft 516 kts 15°
2026-05-06 10:21 56.71477 13.78851 33067 ft 519 kts 15°
2026-05-06 10:21 56.74945 13.80725 33494 ft 520 kts 10°
2026-05-06 10:21 56.78500 13.81914 33882 ft 521 kts
2026-05-06 10:22 56.82089 13.82884 34217 ft 523 kts
2026-05-06 10:22 56.85650 13.83758 34594 ft 523 kts
2026-05-06 10:22 56.89249 13.84595 35148 ft 519 kts
2026-05-06 10:22 56.92826 13.85412 35656 ft 517 kts
2026-05-06 10:23 56.96385 13.86226 36155 ft 515 kts
2026-05-06 10:23 56.99929 13.87045 36651 ft 512 kts
2026-05-06 10:23 57.03459 13.87869 37136 ft 510 kts
2026-05-06 10:23 57.06962 13.88692 37609 ft 507 kts
2026-05-06 10:24 57.10459 13.89517 38081 ft 505 kts
2026-05-06 10:24 57.13938 13.90340 38537 ft 503 kts
2026-05-06 10:24 57.17402 13.91162 38918 ft 501 kts
2026-05-06 10:24 57.20855 13.91983 39185 ft 501 kts
2026-05-06 10:25 57.24317 13.92807 39414 ft 501 kts
2026-05-06 10:25 57.27781 13.93632 39652 ft 502 kts
2026-05-06 10:25 57.31242 13.94456 39889 ft 502 kts
2026-05-06 10:25 57.34702 13.95283 40126 ft 501 kts
2026-05-06 10:26 57.38161 13.96115 40375 ft 501 kts
2026-05-06 10:26 57.41621 13.96971 40614 ft 501 kts
2026-05-06 10:26 57.45076 13.97831 40874 ft 501 kts
2026-05-06 10:26 57.48540 13.98687 40960 ft 505 kts
2026-05-06 10:27 57.55572 14.00401 40959 ft 514 kts
2026-05-06 10:27 57.61430 14.01824 40976 ft 514 kts
2026-05-06 10:28 57.68271 14.03491 40971 ft 514 kts
2026-05-06 10:28 57.75357 14.05223 40971 ft 513 kts
2026-05-06 10:29 57.82398 14.06950 40938 ft 513 kts
2026-05-06 10:29 57.89488 14.08695 40948 ft 513 kts
2026-05-06 10:30 57.96570 14.10445 40957 ft 513 kts
2026-05-06 10:30 58.03660 14.12204 40973 ft 513 kts
2026-05-06 10:31 58.10744 14.13969 40985 ft 513 kts
2026-05-06 10:31 58.17827 14.15742 40982 ft 513 kts
2026-05-06 10:32 58.24908 14.17520 41007 ft 513 kts
2026-05-06 10:32 58.32002 14.19307 40987 ft 515 kts
2026-05-06 10:33 58.39106 14.21104 40992 ft 515 kts
2026-05-06 10:33 58.46213 14.22912 40992 ft 515 kts
2026-05-06 10:34 58.53315 14.24770 41015 ft 517 kts
2026-05-06 10:34 58.56809 14.26527 40999 ft 522 kts 17°
2026-05-06 10:34 58.60100 14.29538 40993 ft 527 kts 29°
2026-05-06 10:35 58.63010 14.33830 40993 ft 531 kts 43°
2026-05-06 10:35 58.65554 14.38989 40983 ft 532 kts 47°
2026-05-06 10:35 58.67976 14.44371 40725 ft 531 kts 49°
2026-05-06 10:35 58.70330 14.49846 39972 ft 533 kts 50°
2026-05-06 10:36 58.72676 14.55420 39123 ft 539 kts 50°
2026-05-06 10:36 58.75042 14.61062 38252 ft 543 kts 50°
2026-05-06 10:36 58.77419 14.66714 37460 ft 543 kts 50°
2026-05-06 10:36 58.79769 14.72275 36727 ft 542 kts 49°
2026-05-06 10:37 58.82154 14.77903 35986 ft 542 kts 49°
2026-05-06 10:37 58.84544 14.83537 35217 ft 543 kts 50°
2026-05-06 10:37 58.86945 14.89198 34345 ft 547 kts 50°
2026-05-06 10:37 58.89353 14.94887 33654 ft 546 kts 50°
2026-05-06 10:38 58.91751 15.00570 33038 ft 542 kts 50°
2026-05-06 10:38 58.94123 15.06205 32425 ft 539 kts 50°
2026-05-06 10:38 58.96480 15.11819 31801 ft 536 kts 50°
2026-05-06 10:38 58.98823 15.17414 31224 ft 533 kts 50°
2026-05-06 10:39 59.01152 15.22989 30633 ft 531 kts 49°
2026-05-06 10:39 59.03475 15.28563 29992 ft 530 kts 49°
2026-05-06 10:39 59.05784 15.34116 29344 ft 527 kts 49°
2026-05-06 10:39 59.08079 15.39648 28744 ft 523 kts 49°
2026-05-06 10:40 59.10349 15.45134 28143 ft 519 kts 49°
2026-05-06 10:40 59.11843 15.48750 27743 ft 516 kts 49°
2026-05-06 10:40 59.14082 15.54182 27119 ft 512 kts 49°
2026-05-06 10:40 59.16302 15.59580 26544 ft 508 kts 49°
2026-05-06 10:41 59.18499 15.64935 25968 ft 504 kts 49°
2026-05-06 10:41 59.20684 15.70272 25413 ft 500 kts 49°
2026-05-06 10:41 59.22842 15.75556 24885 ft 496 kts 49°
2026-05-06 10:41 59.24981 15.80812 24304 ft 493 kts 49°
2026-05-06 10:42 59.27102 15.86034 23720 ft 489 kts 49°
2026-05-06 10:42 59.29206 15.91226 23073 ft 485 kts 49°
2026-05-06 10:42 59.31284 15.96367 22483 ft 479 kts 49°
2026-05-06 10:42 59.33337 16.01455 21909 ft 472 kts 49°
2026-05-06 10:43 59.35357 16.06473 21341 ft 466 kts 49°
2026-05-06 10:43 59.37352 16.11436 20778 ft 460 kts 49°
2026-05-06 10:43 59.39320 16.16342 20219 ft 455 kts 49°
2026-05-06 10:44 59.43176 16.25996 19124 ft 444 kts 49°
2026-05-06 10:44 59.45065 16.30739 18612 ft 439 kts 49°
2026-05-06 10:44 59.46935 16.35437 18025 ft 434 kts 49°
2026-05-06 10:44 59.48783 16.40089 17451 ft 428 kts 49°
2026-05-06 10:45 59.50597 16.44665 16894 ft 421 kts 49°
2026-05-06 10:45 59.52381 16.49177 16406 ft 414 kts 49°
2026-05-06 10:45 59.54132 16.53613 15868 ft 407 kts 49°
2026-05-06 10:45 59.55859 16.57993 15360 ft 401 kts 49°
2026-05-06 10:46 59.57568 16.62286 14845 ft 394 kts 46°
2026-05-06 10:46 59.59520 16.65940 14364 ft 382 kts 34°
2026-05-06 10:46 59.61606 16.69105 13872 ft 375 kts 32°
2026-05-06 10:46 59.63692 16.72133 13351 ft 368 kts 31°
2026-05-06 10:47 59.65747 16.75080 12854 ft 361 kts 31°
2026-05-06 10:47 59.67765 16.77963 12407 ft 354 kts 32°
2026-05-06 10:47 59.69746 16.80792 11906 ft 349 kts 32°
2026-05-06 10:47 59.71699 16.83579 11450 ft 343 kts 32°
2026-05-06 10:48 59.73617 16.86320 11090 ft 335 kts 32°
2026-05-06 10:48 59.75458 16.88958 10999 ft 318 kts 32°
2026-05-06 10:48 59.77182 16.91432 11001 ft 304 kts 32°
2026-05-06 10:48 59.78887 16.93878 10933 ft 299 kts 32°
2026-05-06 10:49 59.80562 16.96304 10496 ft 298 kts 34°
2026-05-06 10:49 59.81990 16.99268 10124 ft 298 kts 56°
2026-05-06 10:49 59.82706 17.03084 9813 ft 296 kts 80°
2026-05-06 10:49 59.82984 17.07157 9469 ft 298 kts 84°
2026-05-06 10:50 59.83200 17.11247 9148 ft 297 kts 84°
2026-05-06 10:50 59.83416 17.15316 8823 ft 295 kts 84°
2026-05-06 10:50 59.83634 17.19345 8517 ft 292 kts 84°
2026-05-06 10:50 59.83854 17.23352 8200 ft 290 kts 84°
2026-05-06 10:51 59.83893 17.27344 7887 ft 288 kts 94°
2026-05-06 10:51 59.83729 17.31295 7588 ft 286 kts 96°
2026-05-06 10:51 59.83531 17.35220 7291 ft 284 kts 96°
2026-05-06 10:51 59.83331 17.39114 6977 ft 282 kts 96°
2026-05-06 10:52 59.83139 17.42977 6669 ft 280 kts 96°
2026-05-06 10:52 59.82948 17.46813 6367 ft 278 kts 96°
2026-05-06 10:52 59.82757 17.50628 6087 ft 274 kts 96°
2026-05-06 10:52 59.82575 17.54257 5860 ft 254 kts 96°
2026-05-06 10:53 59.82405 17.57631 5574 ft 237 kts 96°
2026-05-06 10:53 59.82244 17.60819 5252 ft 226 kts 96°
2026-05-06 10:53 59.82090 17.63866 5020 ft 217 kts 96°
2026-05-06 10:53 59.81940 17.66808 4790 ft 212 kts 96°
2026-05-06 10:54 59.81793 17.69699 4526 ft 208 kts 96°
2026-05-06 10:54 59.81646 17.72542 4297 ft 206 kts 97°
2026-05-06 10:54 59.81499 17.75374 4056 ft 205 kts 97°
2026-05-06 10:54 59.81354 17.78188 3846 ft 203 kts 97°
2026-05-06 10:55 59.81206 17.80993 3790 ft 204 kts 97°
2026-05-06 10:55 59.81060 17.83782 3695 ft 204 kts 97°
2026-05-06 10:55 59.80914 17.86570 3614 ft 202 kts 97°
2026-05-06 10:55 59.80771 17.89295 3516 ft 195 kts 97°
2026-05-06 10:56 59.80636 17.91891 3436 ft 183 kts 97°
2026-05-06 10:56 59.80509 17.94323 3346 ft 172 kts 97°
2026-05-06 10:56 59.80382 17.96681 3279 ft 171 kts 97°
2026-05-06 10:56 59.80079 17.98945 3180 ft 170 kts 121°
2026-05-06 10:57 59.79149 18.00207 3166 ft 162 kts 172°
2026-05-06 10:57 59.78036 18.00465 2941 ft 160 kts 179°
2026-05-06 10:57 59.76951 18.00234 2679 ft 156 kts 197°
2026-05-06 10:57 59.75898 17.99830 2449 ft 154 kts 190°
2026-05-06 10:58 59.74852 17.99489 2214 ft 150 kts 193°
2026-05-06 10:58 59.73846 17.99126 1984 ft 142 kts 193°
2026-05-06 10:58 59.72921 17.98805 1782 ft 132 kts 192°
2026-05-06 10:58 59.72016 17.98518 1619 ft 129 kts 190°
2026-05-06 10:59 59.71142 17.98231 1453 ft 126 kts 194°
2026-05-06 10:59 59.70281 17.97862 1296 ft 130 kts 194°
2026-05-06 10:59 59.69401 17.97567 1091 ft 128 kts 191°
2026-05-06 10:59 59.68519 17.97262 897 ft 129 kts 194°
2026-05-06 11:00 59.67639 17.96896 713 ft 130 kts 195°
2026-05-06 11:00 59.66744 17.96576 538 ft 131 kts 192°
2026-05-06 11:00 59.65855 17.96245 352 ft 130 kts 194°
2026-05-06 11:00 59.64972 17.95930 173 ft 128 kts 193°
2026-05-06 11:01 59.64126 17.95615 116 ft 111 kts 191°
2026-05-06 11:01 59.63514 17.95394 123 ft 68 kts 191°
2026-05-06 11:01 59.63222 17.95289 134 ft 17 kts 192°
2026-05-06 11:01 59.63099 17.95226 139 ft 20 kts 201°
2026-05-06 11:02 59.62970 17.95090 142 ft 22 kts 215°
2026-05-06 11:02 59.62858 17.94892 143 ft 15 kts 239°
2026-05-06 11:02 59.62882 17.94777 143 ft 10 kts 343°
2026-05-06 11:02 59.62968 17.94787 141 ft 15 kts 11°
2026-05-06 11:03 59.63094 17.94834 137 ft 22 kts 10°
2026-05-06 11:03 59.63260 17.94894 124 ft 27 kts 10°
2026-05-06 11:03 59.63460 17.94967 123 ft 32 kts 10°
2026-05-06 11:03 59.63683 17.95046 116 ft 34 kts 11°
2026-05-06 11:04 59.63891 17.95124 114 ft 29 kts
2026-05-06 11:04 59.64071 17.95188 112 ft 23 kts 10°
2026-05-06 11:04 59.64234 17.95247 111 ft 25 kts 10°
2026-05-06 11:04 59.64407 17.95310 111 ft 22 kts 10°
2026-05-06 11:05 59.64565 17.95367 109 ft 25 kts 10°
2026-05-06 11:05 59.64739 17.95432 110 ft 26 kts 11°
2026-05-06 11:05 59.64917 17.95498 114 ft 25 kts 11°
2026-05-06 11:05 59.65079 17.95497 119 ft 23 kts 346°
2026-05-06 11:06 59.65230 17.95417 125 ft 22 kts 345°
2026-05-06 11:06 59.65377 17.95340 133 ft 22 kts 345°
2026-05-06 11:06 59.65535 17.95257 135 ft 25 kts 345°
2026-05-06 11:06 59.65679 17.95181 136 ft 15 kts 345°
2026-05-06 11:07 59.65749 17.95042 128 ft 17 kts 270°
2026-05-06 11:07 59.65722 17.94798 127 ft 18 kts 256°
2026-05-06 11:07 59.65690 17.94547 122 ft 20 kts 256°
2026-05-06 11:07 59.65654 17.94267 127 ft 22 kts 256°
2026-05-06 11:08 59.65616 17.93968 120 ft 18 kts 256°
2026-05-06 11:08 59.65551 17.93879 117 ft 13 kts 174°
2026-05-06 11:08 59.65454 17.93925 115 ft 14 kts 166°
2026-05-06 11:08 59.65373 17.93955 117 ft 9 kts 185°
2026-05-06 11:09 59.65331 17.93861 114 ft 7 kts 246°
2026-05-06 11:09 59.65326 17.93837 114 ft 0 kts 246°